Newburgh, NY

1:51 AM EST on February 07, 2016 (GMT -0500)
Stewart International

Weather History for KSWF - November, 2012

Change the Weather History Date:

Tuesday, November 27, 2012

  Actual Average Record
Temperature  
Mean Temperature 30 °F -  
Max Temperature 33 °F 45 °F 66 °F (1979)
Min Temperature 26 °F 28 °F 13 °F (1993)
Degree Days  
Heating Degree Days 36    
Moisture  
Dew Point 30 °F    
Average Humidity 92    
Maximum Humidity 100    
Minimum Humidity 75    
Precipitation  
Precipitation 0.00 in - - ()
Sea Level Pressure  
Sea Level Pressure 30.26 in    
Wind  
Wind Speed 0 mph (NNE)    
Max Wind Speed 6 mph    
Max Gust Speed -    
Visibility 6 miles    
Events Snow    
Averages and records for this station are not official NWS values.
T = Trace of Precipitation, MM = Missing Value Source: NWS Daily Summary

Daily Weather History Graph

Daily Weather History Graph

Search for Another Location

Airport or City:

Trip Planner

Search our weather history database for the weather conditions in past years. The results will help you decide how hot, cold, wet, or windy it might be!

Date:

Astronomy

Nov. 27, 2012 Rise Set
Actual Time 6:59 AM EST 4:28 PM EST
Civil Twilight 6:28 AM EST 4:59 PM EST
Nautical Twilight 5:54 AM EST 5:33 PM EST
Astronomical Twilight 5:21 AM EST 6:06 PM EST
Moon 3:58 PM EST (11/27) 6:01 AM EST (11/27)
Length of Visible Light 10h 30m
Length of Day
9h 29m
Waxing Gibbous, 99% of the Moon is Illuminated
Nov 27
Waxing Gibbous
Nov 28
Full
Dec 6
Last Quarter
Dec 13
New
Dec 20
First Quarter

Hourly Weather History & Observations

Time (EST) Temp. Windchill Dew Point Humidity Pressure Visibility Wind Dir Wind Speed Gust Speed Precip Events Conditions
12:45 AM 30.2 °F - 24.8 °F 80% 30.25 in 15.0 mi Calm Calm - N/A   Mostly Cloudy
1:45 AM 26.6 °F - 23.0 °F 86% 30.26 in 15.0 mi Calm Calm - N/A   Mostly Cloudy
2:45 AM 26.6 °F - 23.0 °F 86% 30.27 in 15.0 mi Calm Calm - N/A   Mostly Cloudy
3:45 AM 30.2 °F - 23.0 °F 75% 30.26 in 15.0 mi Calm Calm - N/A   Overcast
6:45 AM 32.0 °F - 28.4 °F 87% 30.29 in 2.0 mi Calm Calm - N/A Snow Light Snow
7:45 AM 30.2 °F - 30.2 °F 100% 30.29 in 2.0 mi Calm Calm - N/A Snow Light Snow
8:45 AM 32.0 °F - 32.0 °F 100% 30.30 in 1.5 mi Calm Calm - N/A Snow Light Snow
9:45 AM 33.8 °F - 32.0 °F 93% 30.29 in 1.0 mi Calm Calm - N/A Snow Light Snow
10:45 AM 33.8 °F - 32.0 °F 93% 30.30 in 1.0 mi Calm Calm - N/A Snow Light Snow
11:25 AM 33.8 °F - 32.0 °F 93% 30.29 in 0.8 mi Calm Calm - N/A Snow Light Snow
11:45 AM 33.8 °F - 32.0 °F 93% 30.27 in 0.8 mi Calm Calm - N/A Snow Snow
12:45 PM 33.8 °F - 32.0 °F 93% 30.26 in 1.0 mi Calm Calm - N/A Snow Light Snow
1:45 PM 33.8 °F - 32.0 °F 93% 30.25 in 1.0 mi Calm Calm - N/A Snow Light Snow
2:45 PM 33.8 °F - 33.8 °F 100% 30.23 in 1.5 mi Calm Calm - N/A Snow Light Snow
3:45 PM 33.8 °F - 33.8 °F 100% 30.24 in 1.5 mi Calm Calm - N/A Snow Light Snow
4:45 PM 33.8 °F - 32.0 °F 93% 30.23 in 2.0 mi Calm Calm - N/A Snow Light Snow
5:45 PM 33.8 °F - 32.0 °F 93% 30.23 in 3.0 mi Calm Calm - N/A Snow Light Snow
7:45 PM 33.8 °F 28.6 °F 32.0 °F 93% 30.24 in 10.0 mi NNE 5.8 mph - N/A   Overcast
8:45 PM 33.8 °F - 32.0 °F 93% 30.24 in 10.0 mi Calm Calm - N/A   Mostly Cloudy
9:45 PM 33.8 °F - 32.0 °F 93% 30.25 in 10.0 mi Calm Calm - N/A   Overcast
10:45 PM 33.8 °F - 32.0 °F 93% 30.23 in 10.0 mi Calm Calm - N/A   Overcast